Location: Newark
(40.3500°N, 15.2333°E)
Time: 13:39:47
(UTC+00:00)

Vanguard 1 - Pass Details

Date: 02 February 2020
Orbit: 650 x 3833 km, 34.2° (Epoch: 24 February)

Event Time Altitude Azimuth Distance (km) Brightness Sun altitude
Rises 10:56:16 0° 210° (SSW) 5,532 14.6 32.6°
Reaches altitude 10° 11:02:03 10° 194° (SSW) 3,848 14.4 32.7°
Maximum altitude 11:07:23 17° 158° (SSE) 2,738 13.8 32.7°
Drops below altitude 10° 11:11:24 10° 121° (ESE) 2,764 12.9 32.8°
Sets 11:14:33 0° 99° (E) 3,397 12.9 32.8°
